SKY MUSTER 2 (NBN1B)

Last updated on Fri Jul 11 2025 00:02:44 GMT+0000 (Coordinated Universal Time)

1 41794U 16060B 25191.57098198 -.00000233 00000+0 00000+0 0 9990 2 41794 0.0209 40.1362 0001826 72.6719 166.2720 1.00267613 32143
UTC large
Height (km)
Speed (km/s)
/
Latitude / Longitude
Inclination (degrees)
Orbital Period (minutes)
Azimuth
Elevation
Range (km)
Doppler Factor

Next 0 passes for location: London (51.5072 / 0.1276)

Sorry there are no passes over London.